Wind_Speed
19 21 22 23 23 23 24 24 24 24 25 26 27 27 27 28 28 28 29 28 28 28 28 27 27 27 28 28 29 29 30 30 30 30 30 30 30 31 31 30 30 30 29 28
21 21 22 22 23 23 24 24 25 25 26 27 27 27 27 28 28 28 28 27 27 27 27 27 27 27 27 28 28 28 30 30 30 31 30 29 29 29 29 30 30 28 28 27
21 21 22 23 23 23 23 23 24 25 25 26 26 27 27 27 27 27 27 27 27 27 27 27 27 27 27 28 28 29 29 30 30 30 30 29 29 29 29 29 28 28 27 27
21 22 22 23 22 23 23 24 24 25 26 26 27 27 26 26 27 27 27 27 28 27 26 27 27 27 28 28 28 28 29 30 30 30 30 30 30 30 30 29 29 28 27 28
21 21 22 21 21 21 22 23 24 24 25 25 26 26 26 26 27 28 27 27 27 28 27 27 27 27 27 27 27 28 28 29 31 31 31 31 30 30 30 29 29 29 29 30
20 21 21 22 20 21 22 24 23 24 24 25 26 26 26 27 27 27 27 26 26 27 27 26 26 26 27 27 27 27 27 28 29 30 30 30 29 29 30 30 29 29 30 31
21 22 22 22 20 20 22 23 23 23 24 24 25 26 26 26 26 25 25 25 25 26 25 26 26 26 26 26 26 26 27 27 27 28 29 29 29 29 29 29 29 29 30 31
22 23 23 21 21 21 22 22 23 23 23 24 24 25 25 25 24 24 24 25 25 25 25 26 26 26 26 26 26 27 27 27 27 27 28 28 28 29 29 28 28 29 29 30
22 23 24 23 22 22 22 23 23 23 24 24 25 25 25 24 24 24 24 25 25 25 26 26 26 26 26 26 26 27 26 27 27 27 28 29 29 29 28 29 29 29 28 28
22 22 22 23 22 22 22 23 23 24 25 25 25 24 24 24 24 24 24 24 25 26 25 26 26 26 25 26 26 26 26 27 27 27 28 28 28 28 28 28 28 28 28 28
21 22 23 23 23 23 23 23 24 24 25 24 24 23 24 24 23 23 24 24 25 25 24 24 25 25 26 26 26 27 27 27 27 27 28 28 27 27 27 27 26 26 25 26
22 22 23 23 23 24 24 23 23 23 23 23 23 23 23 23 23 23 24 24 25 25 24 25 24 24 24 25 25 25 25 26 26 26 26 26 26 26 25 26 26 25 24 25
23 24 24 24 24 23 23 23 23 23 23 23 23 23 23 23 23 23 23 24 25 25 25 25 24 24 24 24 24 23 24 24 24 25 24 24 24 25 25 25 24 24 24 23
23 24 24 23 23 23 23 23 22 22 22 22 22 22 22 23 23 23 23 23 24 25 25 24 24 24 24 23 23 22 22 22 22 22 22 22 22 23 23 24 24 24 23 23
23 23 23 22 23 23 23 23 23 22 22 22 21 21 22 22 22 22 23 23 24 24 24 24 24 24 23 23 23 21 21 21 21 21 21 21 21 21 22 23 24 23 23 24
22 22 22 22 22 23 23 23 23 22 22 23 22 22 22 22 22 22 22 23 23 23 23 23 23 22 22 22 21 21 21 21 21 21 21 20 20 20 20 21 21 22 22 22
21 21 21 21 22 22 23 23 23 23 23 23 23 23 23 22 22 22 23 23 23 23 23 22 22 21 21 21 21 21 21 21 21 20 20 19 20 20 19 20 20 21 21 20
20 21 21 21 21 22 22 22 23 23 22 22 22 23 22 22 22 22 22 22 22 22 22 21 21 20 19 20 20 20 19 19 19 19 19 19 18 19 18 18 18 19 20 20
19 19 20 20 21 22 22 22 22 22 22 22 22 22 22 22 22 22 22 22 22 21 21 21 20 20 19 19 18 18 18 18 18 18 18 17 17 17 18 17 16 16 17 18
19 19 19 20 20 21 21 21 21 22 22 22 22 22 22 22 22 22 22 22 21 20 20 20 20 20 19 18 18 18 17 17 16 16 16 16 17 17 17 16 16 16 16 17
18 19 19 19 20 21 21 22 22 22 22 22 22 21 21 21 22 22 22 22 20 20 20 19 19 19 18 17 17 16 16 16 16 16 16 16 16 16 15 15 15 15 16 16
18 19 20 20 20 21 21 22 22 22 22 22 22 21 21 21 21 21 21 20 20 19 19 18 18 17 17 16 16 16 15 15 15 15 15 15 15 14 14 14 14 15 15 16
19 19 19 20 20 20 21 21 21 22 22 21 21 21 20 20 20 20 19 19 18 18 17 17 16 16 16 16 16 16 15 15 14 14 13 13 14 13 14 14 14 15 15 15
18 18 18 18 19 19 19 20 20 20 20 20 20 19 19 18 18 18 18 17 16 16 16 16 16 15 15 15 15 15 15 14 14 14 14 14 14 13 13 13 14 14 15 14
17 17 18 17 18 18 19 19 19 20 19 19 18 18 17 17 17 17 16 16 16 15 15 15 14 14 14 14 14 14 14 13 13 13 13 13 13 13 13 13 13 13 14 13
17 17 17 17 17 18 18 18 18 18 17 16 16 16 16 16 16 16 16 15 15 14 14 14 14 13 13 13 13 13 13 13 13 13 13 13 13 12 13 13 13 13 13 14
16 16 16 16 16 17 17 17 16 16 15 14 15 15 15 15 15 15 14 14 14 14 14 13 13 13 13 13 13 13 13 13 13 13 13 13 13 14 14 14 14 14 13 13
Wind_Direction
256 259 262 263 264 264 264 266 269 270 273 276 277 280 282 282 283 284 285 285 284 282 280 279 277 273 271 270 270 268 267 267 268 267 268 269 270 271 270 269 269 269 268 265
261 262 264 266 268 270 269 270 271 273 274 277 279 282 283 284 284 284 285 284 283 281 281 279 277 274 272 271 269 267 267 266 266 266 267 268 270 272 271 270 270 271 265 264
264 264 267 266 268 270 272 272 273 274 275 278 281 282 282 283 283 283 283 282 281 281 279 277 277 274 273 273 272 270 269 269 267 267 268 269 269 269 269 268 268 268 264 263
267 268 269 271 270 271 272 272 273 273 274 276 280 281 282 282 283 284 285 285 283 282 279 278 277 275 275 275 274 274 272 270 269 268 269 269 269 267 267 266 266 264 263 263
267 270 272 273 272 272 272 272 273 275 276 277 279 281 282 284 286 286 287 287 285 284 282 280 278 277 276 275 275 276 274 271 270 271 271 271 269 269 268 266 265 264 264 264
268 270 273 275 274 274 274 276 277 278 279 280 281 283 285 287 288 288 288 288 287 286 284 283 281 278 277 276 276 276 275 273 272 271 270 270 269 268 268 266 264 265 266 266
268 271 273 274 273 275 276 277 278 278 279 281 283 285 287 289 289 289 289 288 286 284 283 282 281 279 279 278 277 277 276 274 274 273 270 268 267 267 267 267 267 267 267 265
267 270 273 275 276 278 279 280 279 280 280 282 285 286 288 290 290 287 286 288 288 286 286 285 283 281 279 279 278 277 277 275 274 273 270 268 267 268 269 269 268 267 266 265
268 270 273 275 278 280 280 280 280 280 280 283 286 286 287 289 289 288 287 287 288 288 286 286 284 282 280 279 279 279 279 277 275 274 271 269 269 270 270 269 267 266 266 265
269 270 273 276 278 280 280 280 281 281 281 283 285 286 288 289 288 288 289 289 290 291 289 288 287 285 284 283 282 280 279 278 277 275 272 271 271 271 271 270 268 266 265 263
268 270 274 277 279 280 281 282 282 283 284 284 285 287 289 291 291 289 289 290 291 291 291 291 290 288 287 286 284 283 281 279 277 275 273 271 271 271 270 269 267 265 265 262
269 271 275 279 281 281 281 282 283 284 285 285 286 288 290 290 291 291 291 291 291 290 291 292 292 290 289 288 286 285 283 281 279 277 275 272 270 269 268 267 266 265 265 264
271 273 276 279 280 281 281 282 283 283 285 286 287 288 289 291 291 292 292 291 291 290 291 291 290 291 292 290 290 287 285 284 282 279 276 275 272 269 268 266 266 265 264 263
273 275 276 277 278 278 280 281 282 283 285 287 288 289 290 291 291 292 291 291 292 291 290 290 291 292 292 291 290 288 287 285 282 279 277 276 274 271 269 266 265 264 263 263
274 275 275 275 275 276 278 280 281 282 284 286 287 289 291 292 292 292 291 291 292 292 290 291 292 293 292 291 288 286 286 284 282 280 278 276 275 273 271 268 265 264 265 266
275 277 276 276 277 277 279 280 281 282 284 285 286 288 290 291 292 292 293 293 292 292 291 292 293 293 292 290 288 285 285 283 281 279 280 277 276 276 275 272 268 265 264 264
275 277 279 278 278 279 280 282 283 284 284 285 285 288 290 291 292 293 293 293 292 291 292 292 292 293 293 290 288 286 285 283 280 280 279 277 276 275 275 274 271 268 267 266
277 277 278 278 279 280 282 283 285 285 284 284 285 287 288 290 292 293 293 293 293 294 293 291 291 292 292 292 291 289 288 285 281 279 279 277 276 276 275 273 271 269 267 266
280 281 281 281 282 283 282 282 284 284 284 285 284 285 286 288 289 290 291 293 295 294 293 290 288 290 292 294 293 292 290 288 285 282 280 277 276 276 275 274 273 273 270 267
281 282 282 283 283 283 283 284 284 285 286 285 284 286 286 287 289 290 291 294 294 293 292 290 289 289 291 292 292 291 290 289 286 281 280 279 277 278 277 274 272 272 273 270
282 283 284 286 286 285 284 284 284 285 285 285 286 286 286 287 288 291 292 294 295 293 292 290 289 289 289 289 291 291 289 287 284 281 280 279 278 278 276 274 272 273 275 273
286 286 286 287 287 286 284 284 285 285 286 287 285 284 285 288 291 293 294 294 293 292 290 290 289 288 287 286 286 288 287 286 285 283 281 278 277 275 272 271 272 274 275 273
290 289 288 289 290 288 287 286 285 284 285 287 285 283 285 288 291 292 294 294 292 288 288 289 289 289 287 285 284 285 285 286 285 284 282 282 280 275 272 272 273 275 278 272
290 290 291 292 291 291 289 288 286 286 288 288 286 285 285 287 289 289 290 291 291 289 288 287 287 289 290 289 287 285 285 286 285 282 283 284 282 280 279 278 279 278 277 272
291 292 292 292 293 293 291 288 287 287 287 286 285 286 285 287 288 288 287 288 288 289 288 288 288 290 293 293 291 286 283 284 284 284 284 285 284 280 278 279 281 283 280 274
291 292 292 293 295 297 296 293 291 290 288 285 286 286 285 286 289 289 288 288 289 291 291 290 291 291 292 295 295 291 288 286 285 283 281 281 280 281 283 283 283 282 279 276
290 291 292 293 293 295 296 294 292 291 289 287 286 288 288 290 291 290 287 287 288 291 292 289 289 291 292 294 295 294 292 292 290 284 280 279 277 278 280 280 280 281 279 276
Height
5816 5816 5816 5816 5816 5817 5817 5817 5817 5817 5816 5815 5813 5812 5811 5809 5807 5805 5803 5801 5799 5797 5795 5793 5792 5791 5791 5790 5790 5790 5790 5791 5791 5791 5791 5791 5790 5790 5790 5790 5789 5789 5789 5789
5810 5810 5810 5810 5810 5810 5810 5810 5810 5809 5809 5807 5806 5804 5803 5801 5799 5797 5795 5793 5791 5789 5787 5786 5784 5783 5783 5782 5782 5781 5782 5782 5782 5782 5781 5781 5781 5781 5781 5781 5781 5780 5780 5781
5804 5804 5803 5804 5804 5804 5803 5803 5803 5802 5802 5800 5799 5797 5795 5793 5791 5789 5787 5785 5783 5781 5779 5778 5776 5775 5774 5774 5773 5773 5773 5772 5772 5772 5772 5772 5772 5772 5772 5772 5772 5771 5771 5772
5798 5798 5798 5799 5797 5797 5796 5796 5795 5794 5793 5792 5791 5789 5787 5785 5784 5782 5779 5777 5775 5773 5771 5770 5768 5767 5766 5765 5765 5764 5764 5763 5763 5763 5763 5763 5763 5763 5763 5763 5762 5763 5763 5763
5792 5791 5791 5792 5791 5790 5789 5789 5788 5786 5785 5784 5782 5781 5780 5778 5776 5774 5771 5769 5767 5765 5763 5762 5760 5759 5758 5757 5757 5756 5755 5755 5754 5754 5754 5753 5753 5754 5754 5754 5754 5754 5754 5754
5785 5785 5785 5785 5784 5783 5784 5782 5781 5779 5778 5777 5775 5774 5773 5770 5768 5766 5764 5762 5760 5757 5756 5754 5752 5751 5750 5749 5748 5748 5747 5746 5745 5745 5744 5744 5744 5744 5744 5744 5744 5744 5744 5745
5778 5778 5778 5778 5777 5777 5778 5776 5774 5772 5771 5770 5768 5767 5765 5762 5760 5758 5756 5754 5752 5750 5748 5747 5745 5743 5742 5741 5740 5739 5738 5737 5736 5735 5735 5735 5735 5735 5734 5734 5734 5734 5735 5735
5772 5772 5773 5771 5771 5771 5770 5768 5766 5765 5764 5763 5761 5759 5757 5755 5753 5750 5748 5746 5744 5742 5740 5738 5736 5735 5734 5733 5731 5730 5729 5728 5727 5726 5726 5726 5725 5725 5725 5725 5725 5725 5725 5725
5766 5767 5765 5764 5764 5763 5762 5761 5759 5758 5757 5755 5754 5752 5750 5747 5745 5743 5741 5739 5737 5735 5733 5731 5728 5727 5725 5724 5723 5721 5720 5719 5718 5717 5717 5716 5716 5716 5715 5715 5715 5715 5715 5715
5759 5758 5758 5757 5756 5756 5755 5754 5752 5751 5750 5748 5746 5744 5742 5740 5738 5736 5734 5732 5729 5727 5724 5722 5720 5718 5717 5716 5714 5713 5712 5710 5709 5708 5707 5707 5707 5706 5706 5706 5705 5705 5705 5706
5752 5752 5751 5750 5749 5749 5748 5747 5745 5744 5742 5741 5739 5737 5735 5733 5730 5728 5727 5725 5722 5719 5717 5715 5713 5711 5709 5707 5706 5704 5703 5701 5700 5699 5698 5698 5697 5697 5697 5697 5696 5696 5696 5697
5745 5745 5744 5744 5742 5741 5740 5739 5738 5737 5735 5733 5732 5730 5728 5726 5724 5721 5719 5717 5715 5712 5710 5708 5706 5703 5701 5699 5697 5696 5694 5693 5692 5690 5690 5689 5689 5688 5688 5688 5688 5688 5688 5688
5738 5737 5737 5736 5735 5734 5733 5732 5731 5729 5728 5726 5724 5722 5721 5719 5717 5715 5713 5710 5708 5706 5703 5701 5698 5696 5694 5692 5690 5688 5686 5685 5683 5682 5682 5681 5680 5680 5680 5680 5680 5680 5680 5680
5730 5729 5729 5728 5727 5726 5725 5724 5723 5722 5721 5719 5717 5715 5714 5712 5710 5708 5706 5703 5701 5698 5696 5694 5691 5689 5686 5684 5682 5681 5679 5678 5676 5675 5674 5674 5673 5673 5672 5672 5672 5672 5672 5673
5722 5722 5721 5721 5720 5719 5718 5717 5716 5715 5714 5712 5711 5709 5707 5705 5703 5701 5699 5697 5694 5691 5689 5687 5684 5682 5680 5677 5675 5674 5672 5671 5670 5669 5668 5667 5666 5666 5665 5665 5664 5665 5665 5665
5715 5714 5714 5713 5712 5712 5711 5710 5709 5708 5707 5705 5704 5702 5700 5699 5697 5694 5692 5690 5687 5685 5682 5680 5678 5675 5673 5671 5669 5667 5666 5665 5663 5662 5661 5660 5660 5659 5658 5658 5657 5658 5658 5658
5708 5707 5707 5706 5705 5704 5704 5703 5702 5700 5699 5698 5696 5695 5693 5692 5690 5688 5685 5683 5681 5678 5676 5673 5671 5669 5667 5665 5663 5661 5659 5658 5657 5656 5655 5654 5653 5653 5652 5652 5651 5651 5651 5652
5700 5700 5699 5699 5698 5697 5696 5695 5694 5693 5692 5690 5689 5687 5686 5685 5683 5681 5678 5676 5674 5672 5669 5667 5665 5663 5661 5659 5656 5655 5653 5651 5650 5649 5648 5648 5647 5647 5646 5646 5645 5645 5645 5645
5693 5693 5692 5691 5691 5690 5689 5688 5687 5686 5684 5683 5682 5680 5679 5677 5676 5674 5672 5670 5667 5665 5663 5661 5659 5657 5655 5653 5651 5649 5647 5645 5644 5643 5642 5642 5641 5641 5640 5640 5639 5639 5639 5639
5687 5686 5685 5684 5684 5683 5682 5681 5680 5678 5677 5676 5675 5673 5672 5671 5669 5667 5665 5663 5661 5659 5657 5654 5652 5651 5649 5647 5645 5643 5641 5640 5638 5637 5637 5636 5636 5636 5635 5635 5634 5634 5634 5633
5681 5680 5678 5677 5677 5675 5674 5673 5672 5671 5670 5669 5667 5666 5665 5664 5662 5660 5658 5656 5654 5652 5650 5648 5646 5645 5643 5641 5639 5638 5636 5635 5634 5633 5632 5631 5631 5630 5630 5630 5629 5629 5628 5628
5674 5673 5672 5671 5670 5668 5667 5666 5665 5664 5662 5661 5660 5659 5658 5657 5655 5653 5651 5650 5648 5646 5644 5642 5641 5639 5637 5636 5634 5633 5631 5630 5629 5628 5627 5626 5626 5625 5625 5625 5625 5624 5623 5622
5668 5667 5665 5664 5663 5661 5660 5659 5657 5656 5655 5654 5652 5652 5651 5650 5648 5647 5645 5643 5641 5639 5638 5637 5635 5634 5632 5631 5629 5628 5627 5626 5625 5624 5623 5622 5621 5621 5620 5620 5620 5619 5618 5617
5662 5661 5659 5658 5656 5655 5654 5652 5651 5649 5648 5647 5645 5645 5644 5643 5642 5640 5639 5637 5635 5634 5632 5631 5630 5629 5627 5626 5624 5623 5622 5621 5620 5619 5618 5617 5617 5616 5616 5615 5615 5614 5613 5613
5656 5655 5654 5652 5651 5649 5648 5646 5644 5643 5641 5640 5639 5638 5638 5637 5636 5635 5633 5632 5630 5629 5627 5626 5625 5624 5622 5621 5620 5619 5618 5617 5616 5614 5614 5613 5612 5612 5611 5610 5610 5609 5608 5607
5651 5649 5648 5647 5645 5644 5642 5640 5638 5637 5635 5635 5633 5633 5632 5631 5630 5629 5628 5627 5625 5624 5623 5621 5620 5619 5618 5617 5616 5614 5613 5612 5611 5610 5609 5608 5608 5607 5607 5606 5605 5604 5603 5603
5645 5644 5643 5642 5640 5639 5637 5635 5634 5632 5631 5630 5629 5628 5627 5626 5625 5624 5623 5622 5621 5620 5618 5617 5616 5615 5614 5613 5612 5610 5609 5608 5606 5605 5604 5604 5603 5602 5602 5601 5600 5600 5599 5598